Weather History for KMGC - October, 2012

Change the Weather History Date:

Tuesday, October 9, 2012

  Actual Average (KVPZ) Record (KVPZ)
Temperature  
Mean Temperature 53 °F 55 °F  
Max Temperature 64 °F 65 °F 86 °F (2010)
Min Temperature 42 °F 44 °F 31 °F (2000)
Degree Days  
Heating Degree Days 12 11  
Month to date heating degree days 89  
Since 1 July heating degree days 219  
Cooling Degree Days 0 1  
Month to date cooling degree days 9  
Year to date cooling degree days 711  
Growing Degree Days 3 (Base 50)    
Moisture  
Dew Point 36 °F    
Average Humidity 55    
Maximum Humidity 93    
Minimum Humidity 32    
Precipitation  
Precipitation 0.00 in 0.11 in 0.47 in (2009)
Month to date precipitation 0.89  
Year to date precipitation 29.64  
Sea Level Pressure  
Sea Level Pressure 29.94 in    
Wind  
Wind Speed 11 mph ()    
Max Wind Speed 23 mph    
Max Gust Speed 29 mph    
Visibility 9.8 miles    
Events Rain    
T = Trace of Precipitation, MM = Missing Value Source: Averaged Metar Reports

Daily Weather History Graph

Daily Weather History Graph

Search for Another Location

Airport or City:

Trip Planner

Search our weather history database for the weather conditions in past years. The results will help you decide how hot, cold, wet, or windy it might be!

Date:

Astronomy

Oct. 09, 2012 Rise Set
Actual Time 6:53 AM CDT 6:14 PM CDT
Civil Twilight 6:25 AM CDT 6:42 PM CDT
Nautical Twilight 5:53 AM CDT 7:14 PM CDT
Astronomical Twilight 5:20 AM CDT 7:46 PM CDT
Moon 12:24 AM CDT (10/9) 2:46 PM CDT (10/9)
Length of Visible Light 12h 17m
Length of Day
11h 21m
Last Quarter, 36% of the Moon is Illuminated
Oct 9
Last Quarter
Oct 15
New
Oct 21
First Quarter
Oct 29
Full
Nov 6
Last Quarter

Hourly Weather History & Observations

Time (CDT) Temp. Windchill Dew Point Humidity Pressure Visibility Wind Dir Wind Speed Gust Speed Precip Events Conditions
12:15 AM 44.6 °F 39.7 °F 30.2 °F 57% 30.05 in 10.0 mi South 9.2 mph - N/A   Clear
12:55 AM 44.6 °F 39.7 °F 30.2 °F 57% 30.05 in 10.0 mi SSW 9.2 mph 16.1 mph N/A   Clear
1:15 AM 44.6 °F 39.7 °F 30.2 °F 57% 30.05 in 10.0 mi South 9.2 mph - N/A   Clear
1:55 AM 44.6 °F 40.2 °F 30.2 °F 57% 30.05 in 10.0 mi South 8.1 mph - N/A   Clear
2:35 AM 44.6 °F 38.8 °F 32.0 °F 61% 30.04 in 10.0 mi South 11.5 mph 19.6 mph N/A   Clear
2:55 AM 44.6 °F 39.2 °F 32.0 °F 61% 30.03 in 10.0 mi South 10.4 mph 20.7 mph N/A   Clear
3:15 AM 42.8 °F 36.6 °F 32.0 °F 66% 30.03 in 10.0 mi SSW 11.5 mph 17.3 mph N/A   Clear
3:35 AM 42.8 °F 37.0 °F 32.0 °F 66% 30.02 in 10.0 mi South 10.4 mph 16.1 mph N/A   Clear
3:55 AM 42.8 °F 36.6 °F 32.0 °F 66% 30.02 in 10.0 mi South 11.5 mph - N/A   Clear
4:15 AM 42.8 °F 36.6 °F 32.0 °F 66% 30.02 in 10.0 mi South 11.5 mph 18.4 mph N/A   Clear
4:35 AM 42.8 °F 36.6 °F 32.0 °F 66% 30.02 in 10.0 mi South 11.5 mph 18.4 mph N/A   Clear
4:55 AM 42.8 °F 38.0 °F 32.0 °F 66% 30.02 in 10.0 mi SSW 8.1 mph - N/A   Clear
5:15 AM 42.8 °F 37.0 °F 32.0 °F 66% 30.02 in 10.0 mi South 10.4 mph 16.1 mph N/A   Clear
5:35 AM 42.8 °F 36.6 °F 32.0 °F 66% 30.02 in 10.0 mi SSW 11.5 mph 16.1 mph N/A   Clear
5:55 AM 42.8 °F 37.5 °F 32.0 °F 66% 30.02 in 10.0 mi SSW 9.2 mph 16.1 mph N/A   Clear
6:15 AM 42.8 °F 34.8 °F 32.0 °F 66% 30.02 in 10.0 mi South 17.3 mph 24.2 mph N/A   Clear
6:35 AM 42.8 °F 37.0 °F 32.0 °F 66% 30.02 in 10.0 mi SSW 10.4 mph 17.3 mph N/A   Clear
6:55 AM 42.8 °F 36.6 °F 32.0 °F 66% 30.02 in 10.0 mi SSW 11.5 mph - N/A   Clear
7:15 AM 42.8 °F 36.6 °F 32.0 °F 66% 30.02 in 10.0 mi SSW 11.5 mph 17.3 mph N/A   Clear
7:35 AM 42.8 °F 37.5 °F 33.8 °F 70% 30.02 in 10.0 mi SSW 9.2 mph 18.4 mph N/A   Clear
7:55 AM 44.6 °F 39.2 °F 33.8 °F 66% 30.02 in 10.0 mi South 10.4 mph - N/A   Clear
8:15 AM 44.6 °F 39.7 °F 33.8 °F 66% 30.02 in 10.0 mi SSW 9.2 mph 20.7 mph N/A   Clear
8:35 AM 46.4 °F 41.5 °F 33.8 °F 62% 30.02 in 10.0 mi SSW 10.4 mph - N/A   Clear
8:55 AM 48.2 °F - 35.6 °F 62% 30.01 in 10.0 mi SSW 10.4 mph 16.1 mph N/A   Clear
9:15 AM 50.0 °F - 35.6 °F 58% 30.00 in 10.0 mi SSW 16.1 mph 20.7 mph N/A   Clear
9:35 AM 51.8 °F - 35.6 °F 54% 29.99 in 10.0 mi SSW 12.7 mph 19.6 mph N/A   Clear
9:55 AM 53.6 °F - 35.6 °F 51% 29.99 in 10.0 mi SSW 13.8 mph 21.9 mph N/A   Clear
10:15 AM 55.4 °F - 35.6 °F 47% 29.99 in 10.0 mi SSW 20.7 mph 28.8 mph N/A   Clear
10:35 AM 59.0 °F - 37.4 °F 45% 29.98 in 10.0 mi SSW 19.6 mph 25.3 mph N/A   Clear
10:55 AM 59.0 °F - 35.6 °F 42% 29.97 in 10.0 mi SSW 17.3 mph 24.2 mph N/A   Clear
11:15 AM 59.0 °F - 35.6 °F 42% 29.97 in 10.0 mi SSW 18.4 mph 27.6 mph N/A   Clear
11:35 AM 60.8 °F - 35.6 °F 39% 29.97 in 10.0 mi South 21.9 mph 28.8 mph N/A   Clear
11:55 AM 60.8 °F - 35.6 °F 39% 29.96 in 10.0 mi South 13.8 mph 27.6 mph N/A   Clear
12:15 PM 60.8 °F - 35.6 °F 39% 29.94 in 10.0 mi SSW 19.6 mph 28.8 mph N/A   Clear
12:35 PM 60.8 °F - 35.6 °F 39% 29.93 in 10.0 mi SSW 18.4 mph 26.5 mph N/A   Clear
12:55 PM 60.8 °F - 35.6 °F 39% 29.92 in 10.0 mi SSW 18.4 mph 24.2 mph N/A   Clear
1:15 PM 62.6 °F - 37.4 °F 39% 29.91 in 10.0 mi South 10.4 mph 21.9 mph N/A   Clear
1:35 PM 62.6 °F - 35.6 °F 37% 29.89 in 10.0 mi South 13.8 mph 20.7 mph N/A   Clear
1:55 PM 64.4 °F - 35.6 °F 34% 29.88 in 10.0 mi SSW 16.1 mph 26.5 mph N/A   Clear
2:15 PM 64.4 °F - 35.6 °F 34% 29.88 in 10.0 mi SW 23.0 mph 28.8 mph N/A   Clear
2:35 PM 64.4 °F - 35.6 °F 34% 29.87 in 10.0 mi SSW 17.3 mph 28.8 mph N/A   Clear
2:55 PM 64.4 °F - 35.6 °F 34% 29.87 in 10.0 mi SSW 17.3 mph 24.2 mph N/A   Clear
3:15 PM 64.4 °F - 33.8 °F 32% 29.87 in 10.0 mi SSW 16.1 mph 26.5 mph N/A   Clear
3:35 PM 64.4 °F - 33.8 °F 32% 29.86 in 10.0 mi SSW 16.1 mph 27.6 mph N/A   Clear
3:55 PM 62.6 °F - 35.6 °F 37% 29.86 in 10.0 mi SSW 15.0 mph 26.5 mph N/A   Clear
4:15 PM 62.6 °F - 35.6 °F 37% 29.86 in 10.0 mi SSW 12.7 mph 20.7 mph N/A   Clear
4:35 PM 62.6 °F - 35.6 °F 37% 29.86 in 10.0 mi SSW 15.0 mph 23.0 mph N/A   Scattered Clouds
4:55 PM 60.8 °F - 35.6 °F 39% 29.85 in 10.0 mi SSW 13.8 mph 25.3 mph N/A   Clear
5:15 PM 60.8 °F - 35.6 °F 39% 29.85 in 10.0 mi SSW 13.8 mph 20.7 mph N/A   Clear
5:35 PM 60.8 °F - 35.6 °F 39% 29.85 in 10.0 mi SSW 13.8 mph 20.7 mph N/A   Clear
5:55 PM 59.0 °F - 35.6 °F 42% 29.85 in 10.0 mi SSW 15.0 mph 24.2 mph N/A   Clear
6:15 PM 59.0 °F - 35.6 °F 42% 29.85 in 10.0 mi SSW 13.8 mph 21.9 mph N/A   Clear
6:35 PM 59.0 °F - 37.4 °F 45% 29.85 in 10.0 mi SSW 11.5 mph 17.3 mph N/A   Clear
6:55 PM 59.0 °F - 37.4 °F 45% 29.85 in 10.0 mi SSW 10.4 mph - N/A   Clear
7:15 PM 57.2 °F - 37.4 °F 48% 29.85 in 10.0 mi SSW 11.5 mph 17.3 mph N/A   Clear
7:35 PM 57.2 °F - 37.4 °F 48% 29.85 in 10.0 mi SSW 10.4 mph 20.7 mph N/A   Clear
7:55 PM 57.2 °F - 37.4 °F 48% 29.85 in 10.0 mi SSW 12.7 mph 16.1 mph N/A   Mostly Cloudy
8:15 PM 57.2 °F - 37.4 °F 48% 29.84 in 10.0 mi South 12.7 mph 19.6 mph N/A   Mostly Cloudy
8:35 PM 55.4 °F - 39.2 °F 54% 29.84 in 10.0 mi South 10.4 mph - N/A   Overcast
8:55 PM 55.4 °F - 39.2 °F 54% 29.83 in 10.0 mi SSW 11.5 mph - N/A   Overcast
9:15 PM 55.4 °F - 39.2 °F 54% 29.83 in 10.0 mi SSW 11.5 mph 19.6 mph N/A   Overcast
9:35 PM 55.4 °F - 39.2 °F 54% 29.84 in 10.0 mi SSW 13.8 mph 17.3 mph N/A   Overcast
9:55 PM 51.8 °F - 44.6 °F 76% 29.88 in 10.0 mi NNW 15.0 mph 26.5 mph N/A Rain Rain
10:15 PM 48.2 °F - 44.6 °F 87% 29.90 in 7.0 mi NNW 6.9 mph 18.4 mph N/A Rain Rain
10:35 PM 46.4 °F 40.7 °F 42.8 °F 87% 29.92 in 7.0 mi WNW 12.7 mph 18.4 mph N/A Rain Rain
10:55 PM 44.6 °F 39.2 °F 42.8 °F 93% 29.91 in 10.0 mi NNW 10.4 mph - N/A Rain Light Rain
11:15 PM 44.6 °F 42.2 °F 42.8 °F 93% 29.91 in 10.0 mi NW 4.6 mph - N/A Rain Rain
11:35 PM 44.6 °F 40.7 °F 42.8 °F 93% 29.91 in 7.0 mi NW 6.9 mph - N/A Rain Rain
11:55 PM 44.6 °F 40.7 °F 42.8 °F 93% 29.92 in 7.0 mi NW 6.9 mph - N/A Rain Rain